Weather History for KBJC - October, 2012

Change the Weather History Date:

Saturday, October 13, 2012

  Actual Average Record
Temperature  
Mean Temperature 52 °F -  
Max Temperature 59 °F 65 °F 84 °F (1992)
Min Temperature 46 °F 40 °F 31 °F (1985)
Degree Days  
Heating Degree Days 12    
Growing Degree Days 2 (Base 50)    
Moisture  
Dew Point 33 °F    
Average Humidity 50    
Maximum Humidity 82    
Minimum Humidity 33    
Precipitation  
Precipitation 0.00 in - - ()
Sea Level Pressure  
Sea Level Pressure 29.96 in    
Wind  
Wind Speed 7 mph (NW)    
Max Wind Speed 15 mph    
Max Gust Speed -    
Visibility 14 miles    
Events Rain    
Averages and records for this station are not official NWS values.
T = Trace of Precipitation, MM = Missing Value Source: NWS Daily Summary

Daily Weather History Graph

Daily Weather History Graph

Search for Another Location

Airport or City:

Trip Planner

Search our weather history database for the weather conditions in past years. The results will help you decide how hot, cold, wet, or windy it might be!

Date:

Astronomy

Oct. 13, 2012 Rise Set
Actual Time 7:09 AM MDT 6:23 PM MDT
Civil Twilight 6:42 AM MDT 6:50 PM MDT
Nautical Twilight 6:10 AM MDT 7:21 PM MDT
Astronomical Twilight 5:39 AM MDT 7:52 PM MDT
Moon 5:02 AM MDT (10/13) 5:08 PM MDT (10/13)
Length of Visible Light 12h 08m
Length of Day
11h 13m
Waning Crescent, 4% of the Moon is Illuminated
Oct 13
Waning Crescent
Oct 15
New
Oct 21
First Quarter
Oct 29
Full
Nov 6
Last Quarter

Hourly Weather History & Observations

Time (MDT) Temp. Dew Point Humidity Pressure Visibility Wind Dir Wind Speed Gust Speed Precip Events Conditions
4:05 AM 51.8 °F 23.0 °F 33% 29.90 in 10.0 mi North 6.9 mph - N/A   Clear
4:42 AM 50.0 °F 26.6 °F 40% 29.91 in 10.0 mi NW 6.9 mph - N/A   Clear
4:56 AM 48.2 °F 30.2 °F 50% 29.91 in 10.0 mi NNW 3.5 mph - N/A   Clear
5:16 AM 46.4 °F 30.2 °F 53% 29.91 in 10.0 mi Calm Calm - N/A   Clear
5:45 AM 50.0 °F 28.4 °F 43% 29.91 in 20.0 mi NW 5.8 mph - N/A   Mostly Cloudy
5:55 AM 50.0 °F 30.2 °F 47% 29.91 in 10.0 mi WNW 6.9 mph - N/A   Mostly Cloudy
6:47 AM 50.0 °F 26.6 °F 40% 29.89 in 30.0 mi Calm Calm - N/A   Mostly Cloudy
7:46 AM 51.8 °F 26.6 °F 38% 29.89 in 50.0 mi West 12.7 mph - N/A   Mostly Cloudy
8:58 AM 48.2 °F 33.8 °F 58% 29.92 in 50.0 mi West 5.8 mph - N/A   Mostly Cloudy
9:45 AM 53.6 °F 30.2 °F 41% 29.94 in 50.0 mi WNW 5.8 mph - N/A   Mostly Cloudy
10:55 AM 53.6 °F 30.2 °F 41% 29.95 in 50.0 mi Calm Calm - N/A   Overcast
11:45 AM 55.4 °F 30.2 °F 38% 29.95 in 40.0 mi NNE 9.2 mph - N/A   Overcast
12:46 PM 48.2 °F 39.2 °F 71% 29.98 in 10.0 mi North 11.5 mph - N/A   Overcast
2:24 PM 48.2 °F 42.8 °F 82% 29.98 in 15.0 mi West 15.0 mph - N/A   Overcast
2:53 PM 53.6 °F 42.8 °F 67% 29.97 in 20.0 mi West 6.9 mph - N/A   Mostly Cloudy
3:47 PM 59.0 °F 39.2 °F 48% 29.99 in 20.0 mi NNW 11.5 mph - N/A   Mostly Cloudy
4:45 PM 59.0 °F 39.2 °F 48% 30.02 in 20.0 mi North 12.7 mph - N/A   Mostly Cloudy
6:47 PM 51.8 °F 37.4 °F 58% 30.05 in 30.0 mi WSW 6.9 mph - N/A   Mostly Cloudy
8:51 PM 55.4 °F 32.0 °F 41% 30.09 in 30.0 mi WNW 8.1 mph - N/A   Mostly Cloudy
9:47 PM 53.6 °F 39.2 °F 58% 30.14 in 15.0 mi NNE 9.2 mph - N/A Rain Light Rain